Weather History for KHIB - October, 2011

Change the Weather History Date:

Monday, October 24, 2011

  Actual Average Record
Temperature  
Mean Temperature 38 °F -  
Max Temperature 48 °F 48 °F 73 °F (1989)
Min Temperature 28 °F 30 °F 12 °F (1976)
Degree Days  
Heating Degree Days 27    
Moisture  
Dew Point 30 °F    
Average Humidity 79    
Maximum Humidity 92    
Minimum Humidity 48    
Precipitation  
Precipitation 0.00 in - - ()
Sea Level Pressure  
Sea Level Pressure 30.02 in    
Wind  
Wind Speed 4 mph (NW)    
Max Wind Speed 10 mph    
Max Gust Speed -    
Visibility 10 miles    
Events      
Averages and records for this station are not official NWS values.
T = Trace of Precipitation, MM = Missing Value Source: NWS Daily Summary

Daily Weather History Graph

Daily Weather History Graph

Search for Another Location

Airport or City:

Trip Planner

Search our weather history database for the weather conditions in past years. The results will help you decide how hot, cold, wet, or windy it might be!

Date:

Astronomy

Oct. 24, 2011 Rise Set
Actual Time 7:42 AM CDT 6:07 PM CDT
Civil Twilight 7:11 AM CDT 6:39 PM CDT
Nautical Twilight 6:35 AM CDT 7:14 PM CDT
Astronomical Twilight 5:59 AM CDT 7:50 PM CDT
Moon 4:53 AM CDT (10/24) 4:38 PM CDT (10/24)
Length of Visible Light 11h 28m
Length of Day
10h 25m
Waning Crescent, 7% of the Moon is Illuminated
Oct 24
Waning Crescent
Oct 26
New
Nov 2
First Quarter
Nov 10
Full
Nov 18
Last Quarter

Hourly Weather History & Observations

Time (CDT) Temp. Windchill Dew Point Humidity Pressure Visibility Wind Dir Wind Speed Gust Speed Precip Events Conditions
12:53 AM 32.0 °F 28.7 °F 28.9 °F 88% 29.89 in 10.0 mi WNW 3.5 mph - N/A   Clear
1:53 AM 30.0 °F - 28.0 °F 92% 29.91 in 10.0 mi Calm Calm - N/A   Clear
2:53 AM 30.9 °F 24.3 °F 27.0 °F 85% 29.92 in 10.0 mi NW 6.9 mph - N/A   Clear
3:53 AM 34.0 °F 29.8 °F 30.0 °F 85% 29.93 in 10.0 mi WNW 4.6 mph - N/A   Clear
4:53 AM 32.0 °F 28.7 °F 28.9 °F 88% 29.94 in 10.0 mi West 3.5 mph - N/A   Clear
5:53 AM 30.0 °F 25.2 °F 28.0 °F 92% 29.96 in 10.0 mi NNW 4.6 mph - N/A   Clear
6:53 AM 32.0 °F 26.4 °F 28.9 °F 88% 29.99 in 10.0 mi WNW 5.8 mph - N/A   Clear
7:53 AM 28.9 °F 21.9 °F 27.0 °F 92% 30.00 in 10.0 mi WNW 6.9 mph - N/A   Clear
8:53 AM 33.1 °F 28.7 °F 30.9 °F 92% 30.02 in 10.0 mi WNW 4.6 mph - N/A   Clear
9:53 AM 37.9 °F 32.1 °F 33.1 °F 83% 30.03 in 10.0 mi NNW 8.1 mph - N/A   Clear
10:53 AM 39.9 °F 33.4 °F 33.1 °F 77% 30.05 in 10.0 mi WNW 10.4 mph - N/A   Partly Cloudy
11:53 AM 42.1 °F 37.1 °F 34.0 °F 73% 30.05 in 10.0 mi NW 8.1 mph - N/A   Clear
12:53 PM 45.0 °F 40.1 °F 32.0 °F 60% 30.04 in 10.0 mi WNW 9.2 mph - N/A   Clear
1:53 PM 46.9 °F - 32.0 °F 56% 30.04 in 10.0 mi NNW 5.8 mph - N/A   Partly Cloudy
2:53 PM 46.9 °F - 30.9 °F 54% 30.04 in 10.0 mi NW 9.2 mph - N/A   Mostly Cloudy
3:53 PM 48.9 °F - 30.0 °F 48% 30.03 in 10.0 mi NW 5.8 mph - N/A   Scattered Clouds
4:53 PM 48.0 °F - 30.9 °F 52% 30.04 in 10.0 mi WNW 4.6 mph - N/A   Clear
5:53 PM 41.0 °F 39.0 °F 33.1 °F 73% 30.06 in 10.0 mi NW 3.5 mph - N/A   Clear
6:53 PM 36.0 °F - 32.0 °F 86% 30.07 in 10.0 mi Calm Calm - N/A   Clear
7:53 PM 35.1 °F - 30.9 °F 85% 30.09 in 10.0 mi Calm Calm - N/A   Clear
8:53 PM 34.0 °F - 30.0 °F 85% 30.09 in 10.0 mi Calm Calm - N/A   Clear
9:53 PM 32.0 °F - 28.9 °F 88% 30.10 in 10.0 mi Calm Calm - N/A   Clear
10:53 PM 33.1 °F - 30.0 °F 89% 30.12 in 10.0 mi Calm Calm - N/A   Clear
11:53 PM 32.0 °F - 30.0 °F 92% 30.11 in 10.0 mi Calm Calm - N/A   Clear